Wetterdaten: Donnerstag, 21.05.2015
Datum Zeit Temp. A. Feuchte A. Luftdruck Regen Wind Richtung Richtung Sonnenschein ET UV Solar Taupunkt Windchill Windben Empfang
21.05.2015 00:00 7,1 C 97 % 1018,4 hPa 0,0 l/m 0,0 km/h (0 Bft) SW 215 0 min 0,000 mm 0,0 UV-I 0 W/m 6,7 C 7,1 C 0,0 km/h (0 Bft) 0,00 %
21.05.2015 00:15 7,1 C 97 % 1018,3 hPa 0,0 l/m 1,4 km/h (1 Bft) W-SW 252 0 min 0,000 mm 0,0 UV-I 0 W/m 6,7 C 7,1 C 4,0 km/h (1 Bft) 0,00 %
21.05.2015 00:30 7,2 C 97 % 1018,4 hPa 0,0 l/m 1,4 km/h (1 Bft) W-SW 251 0 min 0,000 mm 0,0 UV-I 0 W/m 6,8 C 7,2 C 4,0 km/h (1 Bft) 0,00 %
21.05.2015 00:45 7,2 C 97 % 1018,5 hPa 0,0 l/m 0,0 km/h (0 Bft) SW 224 0 min 0,000 mm 0,0 UV-I 0 W/m 6,8 C 7,2 C 0,0 km/h (0 Bft) 0,00 %
21.05.2015 01:00 7,2 C 97 % 1018,6 hPa 0,3 l/m 0,0 km/h (0 Bft) S-SW 207 0 min 0,000 mm 0,0 UV-I 0 W/m 6,8 C 7,2 C 0,0 km/h (0 Bft) 0,00 %
21.05.2015 01:15 7,2 C 97 % 1018,4 hPa 0,0 l/m 0,4 km/h (0 Bft) S-SW 211 0 min 0,000 mm 0,0 UV-I 0 W/m 6,8 C 7,2 C 4,0 km/h (1 Bft) 0,00 %
21.05.2015 01:30 7,2 C 97 % 1018,4 hPa 0,0 l/m 0,0 km/h (0 Bft) O-SO 123 0 min 0,000 mm 0,0 UV-I 0 W/m 6,8 C 7,2 C 0,0 km/h (0 Bft) 0,00 %
21.05.2015 01:45 7,2 C 97 % 1018,6 hPa 0,0 l/m 0,0 km/h (0 Bft) S 173 0 min 0,000 mm 0,0 UV-I 0 W/m 6,8 C 7,2 C 0,0 km/h (0 Bft) 0,00 %
21.05.2015 02:00 7,1 C 97 % 1018,6 hPa 0,0 l/m 1,4 km/h (1 Bft) W-SW 251 0 min 0,000 mm 0,0 UV-I 0 W/m 6,7 C 7,1 C 4,0 km/h (1 Bft) 0,00 %
21.05.2015 02:15 7,1 C 97 % 1018,7 hPa 0,0 l/m 0,0 km/h (0 Bft) S 189 0 min 0,000 mm 0,0 UV-I 0 W/m 6,7 C 7,1 C 0,0 km/h (0 Bft) 0,00 %
21.05.2015 02:30 7,1 C 97 % 1018,4 hPa 0,0 l/m 0,0 km/h (0 Bft) W-SW 251 0 min 0,000 mm 0,0 UV-I 0 W/m 6,7 C 7,1 C 0,0 km/h (0 Bft) 0,00 %
21.05.2015 02:45 7,1 C 97 % 1018,9 hPa 0,3 l/m 0,0 km/h (0 Bft) S 188 0 min 0,000 mm 0,0 UV-I 0 W/m 6,7 C 7,1 C 0,0 km/h (0 Bft) 0,00 %
21.05.2015 03:00 7,2 C 97 % 1018,8 hPa 0,0 l/m 0,4 km/h (0 Bft) S-SW 211 0 min 0,000 mm 0,0 UV-I 0 W/m 6,8 C 7,2 C 4,0 km/h (1 Bft) 0,00 %
21.05.2015 03:15 7,1 C 97 % 1018,7 hPa 0,0 l/m 0,0 km/h (0 Bft) S 190 0 min 0,000 mm 0,0 UV-I 0 W/m 6,7 C 7,1 C 0,0 km/h (0 Bft) 0,00 %
21.05.2015 03:30 7,0 C 97 % 1018,8 hPa 0,0 l/m 0,0 km/h (0 Bft) S 187 0 min 0,000 mm 0,0 UV-I 0 W/m 6,6 C 7,0 C 0,0 km/h (0 Bft) 0,00 %
21.05.2015 03:45 6,9 C 97 % 1019,0 hPa 0,3 l/m 0,4 km/h (0 Bft) SW 224 0 min 0,000 mm 0,0 UV-I 0 W/m 6,5 C 6,9 C 4,0 km/h (1 Bft) 0,00 %
21.05.2015 04:00 6,9 C 97 % 1018,9 hPa 0,0 l/m 1,4 km/h (1 Bft) SW 224 0 min 0,000 mm 0,0 UV-I 0 W/m 6,5 C 6,9 C 4,0 km/h (1 Bft) 0,00 %
21.05.2015 04:15 6,9 C 97 % 1018,9 hPa 0,3 l/m 1,4 km/h (1 Bft) W-SW 255 0 min 0,000 mm 0,0 UV-I 0 W/m 6,5 C 6,9 C 4,0 km/h (1 Bft) 0,00 %
21.05.2015 04:30 6,9 C 97 % 1019,1 hPa 0,3 l/m 0,0 km/h (0 Bft) S 176 0 min 0,000 mm 0,0 UV-I 0 W/m 6,5 C 6,9 C 0,0 km/h (0 Bft) 0,00 %
21.05.2015 04:45 7,0 C 97 % 1019,2 hPa 0,3 l/m 0,0 km/h (0 Bft) W-SW 255 0 min 0,000 mm 0,0 UV-I 0 W/m 6,6 C 7,0 C 0,0 km/h (0 Bft) 0,00 %
21.05.2015 05:00 6,9 C 97 % 1019,4 hPa 0,3 l/m 0,0 km/h (0 Bft) S 174 0 min 0,000 mm 0,0 UV-I 0 W/m 6,5 C 6,9 C 0,0 km/h (0 Bft) 0,00 %
21.05.2015 05:15 6,9 C 97 % 1019,7 hPa 0,3 l/m 0,4 km/h (0 Bft) O-NO 63 0 min 0,000 mm 0,0 UV-I 0 W/m 6,5 C 6,9 C 4,0 km/h (1 Bft) 0,00 %
21.05.2015 05:30 6,9 C 97 % 1019,8 hPa 0,3 l/m 0,7 km/h (0 Bft) S-SW 199 0 min 0,000 mm 0,0 UV-I 0 W/m 6,5 C 6,9 C 4,0 km/h (1 Bft) 0,00 %
21.05.2015 05:45 6,9 C 97 % 1019,9 hPa 0,0 l/m 0,0 km/h (0 Bft) S-SW 192 0 min 0,000 mm 0,0 UV-I 0 W/m 6,5 C 6,9 C 0,0 km/h (0 Bft) 0,00 %
21.05.2015 06:00 6,8 C 97 % 1020,1 hPa 0,3 l/m 0,4 km/h (0 Bft) S 184 0 min 0,000 mm 0,0 UV-I 1 W/m 6,4 C 6,8 C 4,0 km/h (1 Bft) 0,00 %
21.05.2015 06:15 6,8 C 97 % 1020,2 hPa 0,3 l/m 2,2 km/h (1 Bft) O-SO 107 0 min 0,000 mm 0,0 UV-I 6 W/m 6,4 C 6,8 C 4,0 km/h (1 Bft) 0,00 %
21.05.2015 06:30 6,8 C 97 % 1020,2 hPa 0,3 l/m 0,0 km/h (0 Bft) S 177 0 min 0,000 mm 0,0 UV-I 10 W/m 6,4 C 6,8 C 0,0 km/h (0 Bft) 0,00 %
21.05.2015 06:45 6,9 C 97 % 1020,1 hPa 0,3 l/m 0,0 km/h (0 Bft) O-SO 120 0 min 0,000 mm 0,0 UV-I 26 W/m 6,5 C 6,9 C 0,0 km/h (0 Bft) 0,00 %
21.05.2015 07:00 7,0 C 97 % 1020,4 hPa 0,3 l/m 0,0 km/h (0 Bft) SW 223 0 min 0,000 mm 1,0 UV-I 45 W/m 6,6 C 7,0 C 0,0 km/h (0 Bft) 0,00 %
21.05.2015 07:15 7,3 C 97 % 1020,3 hPa 0,3 l/m 1,4 km/h (1 Bft) W-SW 255 0 min 0,000 mm 1,0 UV-I 88 W/m 6,9 C 7,3 C 4,0 km/h (1 Bft) 0,00 %
21.05.2015 07:30 7,3 C 97 % 1020,3 hPa 0,3 l/m 0,0 km/h (0 Bft) S 176 0 min 0,000 mm 1,0 UV-I 85 W/m 6,9 C 7,3 C 0,0 km/h (0 Bft) 0,00 %
21.05.2015 07:45 7,3 C 97 % 1020,6 hPa 0,0 l/m 0,7 km/h (0 Bft) SW 221 0 min 0,000 mm 0,0 UV-I 70 W/m 6,9 C 7,3 C 4,0 km/h (1 Bft) 0,00 %
21.05.2015 08:00 7,3 C 97 % 1020,6 hPa 0,0 l/m 0,0 km/h (0 Bft) S 169 0 min 0,000 mm 1,0 UV-I 55 W/m 6,9 C 7,3 C 0,0 km/h (0 Bft) 0,00 %
21.05.2015 08:15 7,6 C 97 % 1021,0 hPa 0,0 l/m 0,0 km/h (0 Bft) S 186 0 min 0,000 mm 1,0 UV-I 83 W/m 7,2 C 7,6 C 0,0 km/h (0 Bft) 0,00 %
21.05.2015 08:30 7,7 C 96 % 1021,0 hPa 0,0 l/m 0,0 km/h (0 Bft) W-SW 254 0 min 0,000 mm 1,0 UV-I 80 W/m 7,1 C 7,7 C 0,0 km/h (0 Bft) 0,00 %
21.05.2015 08:45 7,6 C 96 % 1021,1 hPa 0,0 l/m 0,0 km/h (0 Bft) S 178 0 min 0,000 mm 1,0 UV-I 89 W/m 7,0 C 7,6 C 0,0 km/h (0 Bft) 0,00 %
21.05.2015 09:00 7,6 C 95 % 1021,1 hPa 0,0 l/m 0,4 km/h (0 Bft) S-SW 204 0 min 0,000 mm 1,0 UV-I 84 W/m 6,9 C 7,6 C 4,0 km/h (1 Bft) 0,00 %
21.05.2015 09:15 7,8 C 95 % 1021,2 hPa 0,0 l/m 0,7 km/h (0 Bft) S 185 0 min 0,000 mm 1,0 UV-I 83 W/m 7,0 C 7,8 C 4,0 km/h (1 Bft) 0,00 %
21.05.2015 09:30 7,9 C 94 % 1021,4 hPa 0,0 l/m 4,3 km/h (1 Bft) SW 234 0 min 0,000 mm 1,0 UV-I 112 W/m 7,0 C 7,9 C 7,9 km/h (2 Bft) 0,00 %
21.05.2015 09:45 8,0 C 94 % 1021,4 hPa 0,0 l/m 0,0 km/h (0 Bft) SO 137 0 min 0,000 mm 1,0 UV-I 85 W/m 7,1 C 8,0 C 0,0 km/h (0 Bft) 0,00 %
21.05.2015 10:00 8,0 C 93 % 1021,5 hPa 0,3 l/m 0,4 km/h (0 Bft) W-SW 256 0 min 0,000 mm 1,0 UV-I 110 W/m 6,9 C 8,0 C 4,0 km/h (1 Bft) 0,00 %
21.05.2015 10:15 8,2 C 94 % 1021,7 hPa 0,0 l/m 0,0 km/h (0 Bft) S-SW 211 0 min 0,000 mm 1,0 UV-I 104 W/m 7,3 C 8,2 C 0,0 km/h (0 Bft) 0,00 %
21.05.2015 10:30 8,4 C 94 % 1021,6 hPa 0,0 l/m 0,0 km/h (0 Bft) SW 236 0 min 0,000 mm 1,0 UV-I 153 W/m 7,5 C 8,4 C 0,0 km/h (0 Bft) 0,00 %
21.05.2015 10:45 8,3 C 94 % 1021,8 hPa 0,0 l/m 0,0 km/h (0 Bft) O 91 0 min 0,000 mm 1,0 UV-I 111 W/m 7,4 C 8,3 C 0,0 km/h (0 Bft) 0,00 %
21.05.2015 11:00 8,2 C 94 % 1022,1 hPa 0,3 l/m 0,0 km/h (0 Bft) S 176 0 min 0,000 mm 1,0 UV-I 88 W/m 7,3 C 8,2 C 0,0 km/h (0 Bft) 0,00 %
21.05.2015 11:15 8,4 C 93 % 1021,8 hPa 0,0 l/m 0,0 km/h (0 Bft) SW 215 0 min 0,000 mm 1,0 UV-I 81 W/m 7,3 C 8,4 C 0,0 km/h (0 Bft) 0,00 %
21.05.2015 11:30 8,7 C 92 % 1021,8 hPa 0,0 l/m 1,8 km/h (1 Bft) S 182 0 min 0,000 mm 1,0 UV-I 187 W/m 7,5 C 8,7 C 4,0 km/h (1 Bft) 0,00 %
21.05.2015 11:45 8,7 C 92 % 1021,8 hPa 0,0 l/m 0,4 km/h (0 Bft) SO 128 0 min 0,000 mm 1,0 UV-I 151 W/m 7,5 C 8,7 C 4,0 km/h (1 Bft) 0,00 %
21.05.2015 12:00 9,0 C 92 % 1021,6 hPa 0,0 l/m 0,0 km/h (0 Bft) S 178 0 min 0,000 mm 1,0 UV-I 141 W/m 7,8 C 9,0 C 0,0 km/h (0 Bft) 0,00 %
21.05.2015 12:15 9,1 C 91 % 1021,8 hPa 0,0 l/m 0,0 km/h (0 Bft) S 176 0 min 0,000 mm 1,0 UV-I 138 W/m 7,7 C 9,1 C 0,0 km/h (0 Bft) 0,00 %
21.05.2015 12:30 9,0 C 91 % 1021,9 hPa 0,0 l/m 0,0 km/h (0 Bft) S 173 0 min 0,000 mm 1,0 UV-I 133 W/m 7,6 C 9,0 C 0,0 km/h (0 Bft) 0,00 %
21.05.2015 12:45 9,0 C 91 % 1021,9 hPa 0,0 l/m 0,0 km/h (0 Bft) S 183 0 min 0,000 mm 1,0 UV-I 87 W/m 7,6 C 9,0 C 0,0 km/h (0 Bft) 0,00 %
21.05.2015 13:00 9,1 C 91 % 1021,8 hPa 0,0 l/m 0,0 km/h (0 Bft) S 173 0 min 0,000 mm 1,0 UV-I 77 W/m 7,7 C 9,1 C 0,0 km/h (0 Bft) 0,00 %
21.05.2015 13:15 9,3 C 90 % 1021,8 hPa 0,0 l/m 0,0 km/h (0 Bft) W-SW 252 0 min 0,000 mm 1,0 UV-I 110 W/m 7,7 C 9,3 C 0,0 km/h (0 Bft) 0,00 %
21.05.2015 13:30 9,6 C 90 % 1021,5 hPa 0,0 l/m 0,0 km/h (0 Bft) S-SW 206 0 min 0,000 mm 1,0 UV-I 119 W/m 8,0 C 9,6 C 0,0 km/h (0 Bft) 0,00 %
21.05.2015 13:45 9,5 C 90 % 1021,8 hPa 0,0 l/m 0,0 km/h (0 Bft) S 172 0 min 0,000 mm 1,0 UV-I 119 W/m 7,9 C 9,5 C 0,0 km/h (0 Bft) 0,00 %
21.05.2015 14:00 9,3 C 91 % 1021,7 hPa 0,0 l/m 0,0 km/h (0 Bft) S-SW 193 0 min 0,000 mm 1,0 UV-I 75 W/m 7,9 C 9,3 C 0,0 km/h (0 Bft) 0,00 %
21.05.2015 14:15 9,4 C 92 % 1021,8 hPa 0,0 l/m 0,0 km/h (0 Bft) SO 143 0 min 0,000 mm 0,0 UV-I 90 W/m 8,2 C 9,4 C 0,0 km/h (0 Bft) 0,00 %
21.05.2015 14:30 9,2 C 92 % 1021,8 hPa 0,0 l/m 0,0 km/h (0 Bft) SW 225 0 min 0,000 mm 1,0 UV-I 60 W/m 8,0 C 9,2 C 0,0 km/h (0 Bft) 0,00 %
21.05.2015 14:45 9,5 C 93 % 1021,5 hPa 0,3 l/m 1,4 km/h (1 Bft) W-SW 252 0 min 0,000 mm 1,0 UV-I 65 W/m 8,4 C 9,5 C 4,0 km/h (1 Bft) 0,00 %
21.05.2015 15:00 9,4 C 94 % 1021,7 hPa 0,0 l/m 0,0 km/h (0 Bft) S 176 0 min 0,000 mm 1,0 UV-I 88 W/m 8,5 C 9,4 C 0,0 km/h (0 Bft) 0,00 %
21.05.2015 15:15 9,4 C 93 % 1021,9 hPa 0,0 l/m 0,0 km/h (0 Bft) SW 214 0 min 0,000 mm 1,0 UV-I 79 W/m 8,3 C 9,4 C 0,0 km/h (0 Bft) 0,00 %
21.05.2015 15:30 9,4 C 94 % 1022,1 hPa 0,0 l/m 0,4 km/h (0 Bft) O 93 0 min 0,000 mm 1,0 UV-I 138 W/m 8,5 C 9,4 C 4,0 km/h (1 Bft) 0,00 %
21.05.2015 15:45 9,5 C 94 % 1022,1 hPa 0,0 l/m 0,0 km/h (0 Bft) SO 136 0 min 0,000 mm 1,0 UV-I 93 W/m 8,6 C 9,5 C 0,0 km/h (0 Bft) 0,00 %
21.05.2015 16:00 9,5 C 94 % 1022,0 hPa 0,0 l/m 1,8 km/h (1 Bft) W-SW 251 0 min 0,000 mm 1,0 UV-I 108 W/m 8,6 C 9,5 C 4,0 km/h (1 Bft) 0,00 %
21.05.2015 16:15 9,6 C 93 % 1021,8 hPa 0,0 l/m 0,0 km/h (0 Bft) S 181 0 min 0,000 mm 1,0 UV-I 107 W/m 8,5 C 9,6 C 0,0 km/h (0 Bft) 0,00 %
21.05.2015 16:30 9,6 C 93 % 1022,1 hPa 0,0 l/m 0,4 km/h (0 Bft) W-SW 251 0 min 0,000 mm 1,0 UV-I 141 W/m 8,5 C 9,6 C 4,0 km/h (1 Bft) 0,00 %
21.05.2015 16:45 9,7 C 93 % 1022,0 hPa 0,0 l/m 0,0 km/h (0 Bft) S 176 0 min 0,000 mm 1,0 UV-I 120 W/m 8,6 C 9,7 C 0,0 km/h (0 Bft) 0,00 %
21.05.2015 17:00 9,5 C 93 % 1022,3 hPa 0,0 l/m 0,0 km/h (0 Bft) S-SW 201 0 min 0,000 mm 1,0 UV-I 98 W/m 8,4 C 9,5 C 0,0 km/h (0 Bft) 0,00 %
21.05.2015 17:15 9,5 C 93 % 1022,2 hPa 0,3 l/m 0,0 km/h (0 Bft) S 169 0 min 0,000 mm 0,0 UV-I 70 W/m 8,4 C 9,5 C 0,0 km/h (0 Bft) 0,00 %
21.05.2015 17:30 9,4 C 93 % 1022,4 hPa 0,0 l/m 0,0 km/h (0 Bft) S 173 0 min 0,000 mm 0,0 UV-I 55 W/m 8,3 C 9,4 C 0,0 km/h (0 Bft) 0,00 %
21.05.2015 17:45 9,5 C 94 % 1022,4 hPa 0,3 l/m 0,0 km/h (0 Bft) SW 218 0 min 0,000 mm 0,0 UV-I 53 W/m 8,6 C 9,5 C 0,0 km/h (0 Bft) 0,00 %
21.05.2015 18:00 9,4 C 95 % 1022,5 hPa 0,3 l/m 0,0 km/h (0 Bft) S-SW 205 0 min 0,000 mm 0,0 UV-I 32 W/m 8,6 C 9,4 C 0,0 km/h (0 Bft) 0,00 %
21.05.2015 18:15 9,4 C 96 % 1022,8 hPa 0,0 l/m 0,0 km/h (0 Bft) SO 140 0 min 0,000 mm 0,0 UV-I 37 W/m 8,8 C 9,4 C 0,0 km/h (0 Bft) 0,00 %
21.05.2015 18:30 9,4 C 96 % 1023,1 hPa 0,3 l/m 0,0 km/h (0 Bft) S-SW 208 0 min 0,000 mm 0,0 UV-I 30 W/m 8,8 C 9,4 C 0,0 km/h (0 Bft) 0,00 %
21.05.2015 18:45 9,4 C 96 % 1022,8 hPa 0,0 l/m 0,0 km/h (0 Bft) S-SW 211 0 min 0,000 mm 0,0 UV-I 23 W/m 8,8 C 9,4 C 0,0 km/h (0 Bft) 0,00 %
21.05.2015 19:00 9,4 C 97 % 1023,0 hPa 0,3 l/m 0,0 km/h (0 Bft) SW 219 0 min 0,000 mm 0,0 UV-I 23 W/m 8,9 C 9,4 C 0,0 km/h (0 Bft) 0,00 %
21.05.2015 19:15 9,3 C 97 % 1023,1 hPa 0,0 l/m 4,3 km/h (1 Bft) W-SW 252 0 min 0,000 mm 0,0 UV-I 22 W/m 8,8 C 9,3 C 7,9 km/h (2 Bft) 0,00 %
21.05.2015 19:30 9,4 C 97 % 1023,3 hPa 0,3 l/m 0,4 km/h (0 Bft) SW 234 0 min 0,000 mm 0,0 UV-I 16 W/m 8,9 C 9,4 C 4,0 km/h (1 Bft) 0,00 %
21.05.2015 19:45 9,4 C 98 % 1023,4 hPa 0,0 l/m 0,0 km/h (0 Bft) SW 228 0 min 0,000 mm 0,0 UV-I 5 W/m 9,1 C 9,4 C 0,0 km/h (0 Bft) 0,00 %
21.05.2015 20:00 9,3 C 98 % 1023,6 hPa 0,3 l/m 0,0 km/h (0 Bft) S-SW 194 0 min 0,000 mm 0,0 UV-I 3 W/m 9,0 C 9,3 C 0,0 km/h (0 Bft) 0,00 %
21.05.2015 20:15 9,2 C 98 % 1023,7 hPa 0,0 l/m 0,0 km/h (0 Bft) S 182 0 min 0,000 mm 0,0 UV-I 0 W/m 8,9 C 9,2 C 0,0 km/h (0 Bft) 0,00 %
21.05.2015 20:30 9,2 C 98 % 1023,8 hPa 0,0 l/m 0,0 km/h (0 Bft) W-SW 252 0 min 0,000 mm 0,0 UV-I 0 W/m 8,9 C 9,2 C 0,0 km/h (0 Bft) 0,00 %
21.05.2015 20:45 9,1 C 98 % 1024,1 hPa 0,0 l/m 0,0 km/h (0 Bft) S 184 0 min 0,000 mm 0,0 UV-I 0 W/m 8,8 C 9,1 C 0,0 km/h (0 Bft) 0,00 %
21.05.2015 21:00 9,1 C 99 % 1024,4 hPa 0,0 l/m 0,0 km/h (0 Bft) S 188 0 min 0,000 mm 0,0 UV-I 0 W/m 9,0 C 9,1 C 0,0 km/h (0 Bft) 0,00 %
21.05.2015 21:15 9,1 C 99 % 1024,5 hPa 0,0 l/m 0,0 km/h (0 Bft) SW 216 0 min 0,000 mm 0,0 UV-I 0 W/m 9,0 C 9,1 C 0,0 km/h (0 Bft) 0,00 %
21.05.2015 21:30 9,1 C 99 % 1024,9 hPa 0,0 l/m 0,0 km/h (0 Bft) SW 216 0 min 0,000 mm 0,0 UV-I 0 W/m 9,0 C 9,1 C 0,0 km/h (0 Bft) 0,00 %
21.05.2015 21:45 9,1 C 99 % 1024,9 hPa 0,0 l/m 0,0 km/h (0 Bft) S 188 0 min 0,000 mm 0,0 UV-I 0 W/m 9,0 C 9,1 C 0,0 km/h (0 Bft) 0,00 %
21.05.2015 22:00 9,0 C 99 % 1024,9 hPa 0,0 l/m 0,0 km/h (0 Bft) S 188 0 min 0,000 mm 0,0 UV-I 0 W/m 8,9 C 9,0 C 0,0 km/h (0 Bft) 0,00 %
21.05.2015 22:15 9,0 C 99 % 1024,9 hPa 0,0 l/m 0,0 km/h (0 Bft) W-SW 251 0 min 0,000 mm 0,0 UV-I 0 W/m 8,9 C 9,0 C 0,0 km/h (0 Bft) 0,00 %
21.05.2015 22:30 9,0 C 99 % 1024,8 hPa 0,3 l/m 0,0 km/h (0 Bft) W-SW 252 0 min 0,000 mm 0,0 UV-I 0 W/m 8,9 C 9,0 C 0,0 km/h (0 Bft) 0,00 %
21.05.2015 22:45 9,0 C 99 % 1024,9 hPa 0,0 l/m 0,0 km/h (0 Bft) O 100 0 min 0,000 mm 0,0 UV-I 0 W/m 8,9 C 9,0 C 0,0 km/h (0 Bft) 0,00 %
21.05.2015 23:00 9,0 C 99 % 1025,1 hPa 0,0 l/m 0,0 km/h (0 Bft) SW 224 0 min 0,000 mm 0,0 UV-I 0 W/m 8,9 C 9,0 C 0,0 km/h (0 Bft) 0,00 %
21.05.2015 23:15 9,0 C 99 % 1025,1 hPa 0,0 l/m 0,0 km/h (0 Bft) W-SW 238 0 min 0,000 mm 0,0 UV-I 0 W/m 8,9 C 9,0 C 0,0 km/h (0 Bft) 0,00 %
21.05.2015 23:30 8,9 C 99 % 1024,8 hPa 0,0 l/m 0,0 km/h (0 Bft) W-SW 254 0 min 0,000 mm 0,0 UV-I 0 W/m 8,8 C 8,9 C 0,0 km/h (0 Bft) 0,00 %
_ Min-Zeit 06:00 13:15 00:15 - 00:00 - - - - - - 06:00 06:00 00:00 00:00
Minimum _ 6,8 C 90 % 1018,3 hPa - 0,0 km/h (0 Bft) - - - - - - 6,4 C 6,8 C 0,0 km/h (0 Bft) 0,00 %
_ Max-Zeit 16:45 21:00 23:00 01:00 09:30 - - 00:00 00:00 07:00 11:30 19:45 16:45 09:30 00:00
Maximum _ 9,7 C 99 % 1025,1 hPa 0,3 l/m 4,3 km/h
SW (1 Bft)
- - 0 min 0,000 mm 1,0 UV-I 187 W/m 9,1 C 9,7 C 7,9 km/h
SW (2 Bft)
0,00 %
Durchschnitt _ 8,3 C 96 % 1021,5 hPa #8,1 l/m 0,3 km/h (0 Bft) W-SW - #0 min. #0,000 mm 1,0 UV-I 80 W/m 7,7 C 8,3 C 1,2 km/h (1 Bft) 0,00 %